Regional Weather Roundup
Issued by NWS Grand Forks, ND

Home | Current Version | Previous Version | Graphics & Text | Print | Product List | Glossary On
Versions: 1 2 3 4 5 6 7 8 9 10 11 12 13 14 15 16 17 18 19 20 21 22 23 24 25 26 27 28 29 30 31 32 33 34 35 36 37 38 39 40 41 42 43 44 45 46 47 48 49 50
000
ASUS43 KFGF 281631
RWRFGF
PRAIRIE TO PINES  WEATHER ROUNDUP
NATIONAL WEATHER SERVICE EASTERN NORTH DAKOTA/GRAND FORKS ND
1000 AM CST SUN DEC 28 2014

 **SATELLITE DATA USED TO AUGMENT SKY COVER AT AUTOMATED STATIONS**
 *****  WEATHER ACROSS EASTERN NORTH DAKOTA  *****

CITY           SKY/WX    TMP DP  RH WIND       PRES   REMARKS
GRAND FORKS    SUNNY     -8 -13  78 N7        30.33R WCI -23
GRAND FRKS AFB SUNNY     -6 -11  80 N6        30.33R WCI -19
GRAND FRKS NWS   N/A     -6 N/A N/A N7          N/A  WCI -20
DEVILS LAKE    CLOUDY    -4 -11  71 NE6       30.25R WCI -16
FARGO          SUNNY      0  -8  69 N14       30.29R WCI -19
WAHPETON ARPT  CLOUDY     5   0  78 N13       30.25R WCI -12
$$

 ***** WEATHER ACROSS CENTRAL AND WESTERN NORTH DAKOTA  *****

CITY           SKY/WX    TMP DP  RH WIND       PRES   REMARKS
BISMARCK       CLOUDY    10   6  84 E13       30.18R WCI  -5
MINOT          CLOUDY    -4  -8  83 N6        30.22R FOG     WCI -16
JAMESTOWN      CLOUDY     3  -1  83 NE10      30.21R WCI -12
MINOT AFB      CLOUDY    -6  -8  92 N5        30.23R WCI -17
GARRISON         N/A      5   1  83 E8        30.15R WCI  -8
WILLISTON      CLOUDY    11   5  77 E12       30.15R WCI  -3
DICKINSON      CLOUDY    18  14  84 E13       30.01R WCI   5
HETTINGER      CLOUDY    14  11  87 E8        30.00R WCI   3
$$

 *****  OTHER AIRPORT OBSERVATIONS IN OUR AREA  *****

CITY           SKY/WX    TMP DP  RH WIND       PRES   REMARKS
WALHALLA         N/A     -8 N/A N/A NW8       30.34R WCI -23
GRAFTON AIRPOR NOT AVBL
VALLEY CITY AR FAIR       0  -4  85 NE12      30.24R WCI -18
CANDO          FAIR      -2  -8  78 NE5       30.27R WCI -12
CAVALIER APRT  FAIR      -8 -13  77 N8        30.34R WCI -23
GWINNER        MOSUNNY    5   0  78 N15       30.24R WCI -13
SHEYENNE NWR     N/A      1  -8  64 N12       29.95S WCI -16
ROLLA          FAIR      -9 -13  84 CALM      30.23R
 ***** THE ABOVE OBSERVATIONS ARE NON NWS ARE NOT QUALITY
       CONTROLLED AND MAY MIS-REPORT RAIN FOR SNOW...
$$

  *****  WEATHER ACROSS NORTHERN MINNESOTA  *****

CITY           SKY/WX    TMP DP  RH WIND       PRES   REMARKS
FLAG ISLAND    SUNNY    -11 -17  77 NW8       30.25R WCI -28
WARROAD        SUNNY     -8 -15  71 W5        30.26R WCI -19
ROSEAU         SUNNY     -8 -13  77 NW7       30.28R WCI -22
HALLOCK        SUNNY     -9 -17  70 N9        30.32R WCI -27
THF RVR FALLS  SUNNY     -6  -9  84 NW5       30.27R WCI -17
BAUDETTE       SUNNY     -8 -15  71 NW10      30.23R WCI -26
WASKISH        SUNNY      0  -8  71 CALM      30.23R
CROOKSTON      SUNNY     -8 -11  84 N8        30.33R WCI -23
STEPHEN NDAWN    N/A    -11 -17  77 N8          N/A  WCI -28
GREENBUSH NDAW   N/A     -9 -15  77 NW8         N/A  WCI -26
$$
  *****  WEATHER ACROSS CENTRAL AND WEST MINNESOTA  *****

CITY           SKY/WX    TMP DP  RH WIND       PRES   REMARKS
FOSSTON        SUNNY     -2  -9  71 N8        30.24S WCI -17
BEMIDJI        CLOUDY    -2  -5  85 NW6       30.20R WCI -14
PARK RAPIDS    SUNNY      2  -5  72 N10       30.17R WCI -14
ELBOW LAKE     CLOUDY    14  10  83 N10       30.18R WCI   1
WADENA         MOSUNNY    9   3  78 N10       30.17R WCI  -6
DETROIT LAKES  SUNNY      5   0  78 NE8       30.21R WCI  -8
MOORHEAD       SUNNY      0  -4  85 N14       30.28R WCI -19
FERGUS FALLS   CLOUDY     7  -2  66 N9        30.24R WCI  -7
MORRIS MN      CLOUDY    19  16  86 N12       30.17R WCI   7
STAPLES        SUNNY     10   5  79 N10       30.17R WCI  -3
$$
  *****  WEATHER ELSEWHERE ACROSS MINNESOTA  *****

CITY           SKY/WX    TMP DP  RH WIND       PRES   REMARKS
DULUTH         MOSUNNY    7  -3  64 N13       30.11R WCI  -9
INTRNTL FALLS  SUNNY     -4 -10  75 W8        30.20R WCI -19
ELY            PTSUNNY    0  -8  71 NW6       30.14R WCI -12
CLOQUET        SUNNY      9  -2  61 NW9       30.15R WCI  -5
WHEATON        PTSUNNY    9   3  78 N13       30.24R WCI  -7
BRAINERD       SUNNY     13   6  74 N10       30.16R WCI   0
HIBBING        MOSUNNY    0  -7  72 N13       30.17R WCI -18
ALEXANDRIA     CLOUDY    18  12  77 N12       30.14R WCI   5
SAINT CLOUD    CLOUDY    24  15  68 N13       30.16R WCI  12
MINNEAPOLIS    PTSUNNY   13   9  84 CALM      30.17R
$$

  *****  WEATHER ACROSS SOUTH DAKOTA  *****

CITY           SKY/WX    TMP DP  RH WIND       PRES   REMARKS
SIOUX FALLS    MOSUNNY    2   2 100 CALM      30.14R
BROOKINGS      NOT AVBL
WATERTOWN      CLOUDY    13  10  88 N5        30.11R WCI   5
HURON          SUNNY      5   3  91 CALM      30.15R
SISSETON         N/A      9   6  88 N16       30.21R WCI  -8
ABERDEEN       CLOUDY    14  10  84 NE12      30.19R WCI   0
MITCHELL       SUNNY      7   3  84 N5        30.15R WCI  -2
PIERRE         CLOUDY     7   5  91 CALM      30.08R
MOBRIDGE       PTSUNNY   16  12  84 E10       30.07R WCI   4
RAPID CITY     CLOUDY    18   8  65 NW6       29.94S WCI  10
$$

  *****  SOME WEATHER IN NEARBY STATES *****

CITY           SKY/WX    TMP DP  RH WIND       PRES   REMARKS
GLASGOW MT     CLOUDY    18  12  77 NE16      30.04R WCI   3
GREAT FALLS MT SNOW      19  17  92 N22       29.94R VSB 1/2 WCI   2
CHEYENNE WY    PTSUNNY   25   6  44 SW15G26   29.86F WCI  13
SCOTTSBLUFF NE CLOUDY    10   5  80 CALM      29.95S
OMAHA NE       MOSUNNY   22  16  78 S3        30.18R
DES MOINES IA  MOSUNNY   23  18  81 SW6       30.18R WCI  16
DAVENPORT IA   SUNNY     22  16  78 SW7       30.22R WCI  13
CHICAGO IL     PTSUNNY   24  16  71 SW7       30.20R WCI  16
EAU CLAIRE WI  CLOUDY    11   8  88 SW3       30.15R
LA CROSSE WI   SUNNY     19  12  74 S3        30.18R
$$

  *****  SOME NATIONAL WEATHER *****

CITY           SKY/WX    TMP DP  RH WIND       PRES   REMARKS
LA GUARDIA NY  CLOUDY    46  41  82 SW8       29.90F
RALEIGH NC     CLOUDY    57  52  82 W8        30.07F
ATLANTA GA     CLOUDY    57  55  94 SW6       30.10S
NEW ORLEANS LA FOG       62  61  96 NW13      30.11S VSB 1/4
OKLAHOMA CITY  MOSUNNY   26  21  81 CALM      30.26R
ALBUQUERQUE NM MOSUNNY   23  12  62 SW3       30.21S
SALT LAKE CITY FLURRIES  28  17  63 SE15      30.06F WCI  16
LOS ANGELES CA PTSUNNY   47  24  40 NE5       30.27R
BOISE ID       CLOUDY    28  28 100 CALM      30.10R FOG
SEATTLE WA     CLOUDY    40  37  89 CALM      30.19R
$$

*** WEATHER ACROSS MANITOBA...SASKATCHEWAN AND ONTARIO ***
                ***ONTARIO***

CITY           SKY/WX    TMP DP  RH WIND       PRES   REMARKS
GERALDTON      PTSUNNY   -4  -9  77 W9        29.99R WCI -20
THUNDER BAY    MOSUNNY    7  -2  66 W16       30.12  WCI -11
SIOUX LOOKOUT  SUNNY    -13 -20  70 NW8       30.13R WCI -30
TORONTO        PTSUNNY   36  21  55 NW18      30.02S
BIG TROUT LK   FLURRIES -18 -26  69 W14       30.00R WCI -42
PICKLE LAKE    MOSUNNY  -17 -24  70 W10G17    30.02R WCI -37
DRYDEN         SUNNY    -15 -20  76 W10       30.15R WCI -35
KENORA         SUNNY    -17 -22  76 NW7       30.20R WCI -33
$$
                *** MANITOBA***

CITY           SKY/WX    TMP DP  RH WIND       PRES   REMARKS
BRANDON        PTCLDY   -11 -17  77 W8        30.29R WCI -28
DAUPHIN        CLEAR    -27 -35  68 W9        30.33R WCI -49
ISLAND LAKE    PTCLDY   -24 -31  69 NW10      30.18R WCI -46
PILOT MOUND      N/A    -13 -17  84 N3          N/A
THE PAS        PTCLDY   -24 -31  69 NW10      30.37R WCI -46
THOMPSON       PTCLDY   -26 -33  68 NW9       30.28R WCI -47
WINNIPEG       PTCLDY   -17 -24  70 W7        30.34R WCI -33
CHURCHILL      CRYSTALS -13 -18  77 NW22G29   30.17  WCI -40
GILLAM         PTCLDY   -22 -29  69 NW9       30.18R WCI -42
$$
                ***SASKATCHEWAN***

CITY           SKY/WX    TMP DP  RH WIND       PRES   REMARKS
ESTEVAN        MOCLDY    -6  -9  84 E9        30.21R WCI -22
KINDERSLEY     MOCLDY     0  -8  71 NE16      30.24  WCI -21
LLOYDMINSTER   PTCLDY   -17 -20  83 N2        30.32
PRINCE ALBERT  PTCLDY   -27 -33  75 W6        30.38R WCI -44
REGINA         PTCLDY   -18 -24  76 NW7       30.26  WCI -35
YORKTON        CLEAR    -18 -24  76 W7        30.28R WCI -35
N. BATTLEFORD  CLEAR    -20 -24  83 NW6       30.38R WCI -36
LA RONGE       CLEAR    -33 -40  68 CALM      30.43
SASKATOON      PTCLDY   -22 -27  76 NW3       30.37
SWIFT CURRENT  FLURRIES   3   0  85 E12       30.14R WCI -13
$$
NOTE: THESE ARE AUTOMATED STATIONS WITH LIMITED QUALITY CONTROL
      "FAIR" INDICATES FEW OR NO CLOUDS BELOW 12,000 FEET WITH NO
      SIGNIFICANT WEATHER AND/OR OBSTRUCTIONS TO VISIBILITY.
      SKY/WX - SKY CONDITION AND SIGNIFICANT WEATHER.
      TMP - AIR TEMPERATURE.    DP   - DEWPOINT TEMPERATURE.
      RH  - RELATIVE HUMIDITY.  PRES - PRESSURE.
      HX  - HEAT INDEX.         WCI  - WIND CHILL INDEX.
$



USA.gov is the U.S. government's official web portal to all federal, state and local government web resources and services.